Manitowoc, WI

3:06 AM CDT on September 21, 2017 (GMT -0500)
Manitowoc County

Weather History for KMTW - February, 2012

Change the Weather History Date:

Wednesday, February 29, 2012

  Actual Average Record
Temperature  
Mean Temperature 36 °F -  
Max Temperature 39 °F - 55 °F (1964)
Min Temperature 33 °F - -3 °F (1980)
Degree Days  
Heating Degree Days 29    
Moisture  
Dew Point 32 °F    
Average Humidity 86    
Maximum Humidity 93    
Minimum Humidity 75    
Precipitation  
Precipitation 0.19 in - - ()
Sea Level Pressure  
Sea Level Pressure 29.56 in    
Wind  
Wind Speed 19 mph (SE)    
Max Wind Speed 29 mph    
Max Gust Speed 34 mph    
Visibility 8 miles    
Events      
Averages and records for this station are not official NWS values.
T = Trace of Precipitation, MM = Missing Value Source: NWS Daily Summary

Daily Weather History Graph

Daily Weather History Graph

Search for Another Location

Airport or City:

Trip Planner

Search our weather history database for the weather conditions in past years. The results will help you decide how hot, cold, wet, or windy it might be!

Date:

Astronomy

Feb. 29, 2012 Rise Set
Actual Time 6:28 AM CST 5:38 PM CST
Civil Twilight 5:59 AM CST 6:07 PM CST
Nautical Twilight 5:26 AM CST 6:40 PM CST
Astronomical Twilight 4:52 AM CST 7:14 PM CST
Moon 10:02 AM CST (2/29) 12:41 AM CST (2/29)
Length of Visible Light 12h 07m
Length of Day
11h 09m
Waxing Crescent, 47% of the Moon is Illuminated
Feb 29
Waxing Crescent
Feb 29
First Quarter
Mar 8
Full
Mar 14
Last Quarter
Mar 22
New

Hourly Weather History & Observations

Time (CST) Temp. Windchill Dew Point Humidity Pressure Visibility Wind Dir Wind Speed Gust Speed Precip Events Conditions
12:15 AM 35.6 °F 24.5 °F 28.4 °F 75% 29.92 in 10.0 mi East 20.7 mph 25.3 mph N/A   Overcast
12:35 AM 35.6 °F 24.8 °F 28.4 °F 75% 29.92 in 10.0 mi East 19.6 mph 26.5 mph N/A   Overcast
12:55 AM 35.6 °F 24.5 °F 28.4 °F 75% 29.91 in 10.0 mi East 20.7 mph 26.5 mph N/A   Overcast
1:15 AM 35.6 °F 24.5 °F 28.4 °F 75% 29.89 in 10.0 mi East 20.7 mph 26.5 mph N/A   Overcast
1:35 AM 35.6 °F 24.8 °F 28.4 °F 75% 29.88 in 10.0 mi East 19.6 mph - N/A   Overcast
2:15 AM 33.8 °F 22.8 °F 28.4 °F 81% 29.82 in 5.0 mi East 18.4 mph 25.3 mph N/A   Overcast
2:35 AM 33.8 °F 23.2 °F 28.4 °F 81% 29.80 in 3.0 mi ENE 17.3 mph 24.2 mph N/A   Overcast
2:55 AM 33.8 °F 22.2 °F 30.2 °F 87% 29.77 in 4.0 mi East 20.7 mph 27.6 mph 0.02 in   Overcast
3:15 AM 33.8 °F 21.6 °F 32.0 °F 93% 29.75 in 5.0 mi East 23.0 mph 28.8 mph 0.01 in   Overcast
3:35 AM 33.8 °F 22.5 °F 30.2 °F 87% 29.74 in 4.0 mi East 19.6 mph 34.5 mph 0.03 in   Overcast
3:55 AM 33.8 °F 21.3 °F 30.2 °F 87% 29.73 in 5.0 mi East 24.2 mph 32.2 mph 0.04 in   Overcast
4:15 AM 33.8 °F 21.6 °F 30.2 °F 87% 29.71 in 5.0 mi East 23.0 mph 31.1 mph N/A   Overcast
4:35 AM 33.8 °F 21.0 °F 30.2 °F 87% 29.69 in 5.0 mi East 25.3 mph 32.2 mph 0.01 in   Overcast
4:55 AM 33.8 °F 21.9 °F 30.2 °F 87% 29.68 in 5.0 mi East 21.9 mph 33.4 mph 0.02 in   Overcast
5:15 AM 33.8 °F 21.0 °F 30.2 °F 87% 29.67 in 4.0 mi East 25.3 mph 31.1 mph 0.04 in   Overcast
5:35 AM 33.8 °F 21.0 °F 30.2 °F 87% 29.63 in 3.0 mi East 25.3 mph 33.4 mph 0.09 in   Overcast
5:55 AM 33.8 °F 20.3 °F 30.2 °F 87% 29.58 in 5.0 mi East 28.8 mph 34.5 mph 0.10 in   Overcast
6:15 AM 35.6 °F 23.4 °F 30.2 °F 81% 29.58 in 9.0 mi East 25.3 mph 32.2 mph N/A   Overcast
6:35 AM 35.6 °F 24.0 °F 32.0 °F 87% 29.58 in 5.0 mi East 23.0 mph 32.2 mph 0.01 in   Overcast
6:55 AM 35.6 °F 23.7 °F 32.0 °F 87% 29.58 in 5.0 mi East 24.2 mph 34.5 mph 0.01 in   Overcast
7:15 AM 35.6 °F 24.5 °F 32.0 °F 87% 29.58 in 9.0 mi ESE 20.7 mph 31.1 mph N/A   Overcast
7:35 AM 35.6 °F 24.2 °F 32.0 °F 87% 29.56 in 7.0 mi ESE 21.9 mph 33.4 mph N/A   Overcast
7:55 AM 35.6 °F 25.2 °F 33.8 °F 93% 29.55 in 6.0 mi ESE 18.4 mph 27.6 mph N/A   Overcast
8:15 AM 35.6 °F 24.5 °F 33.8 °F 93% 29.54 in 10.0 mi ESE 20.7 mph 32.2 mph N/A   Overcast
8:35 AM 37.4 °F 26.1 °F 33.8 °F 87% 29.52 in 10.0 mi ESE 24.2 mph 34.5 mph N/A   Overcast
8:55 AM 37.4 °F 26.9 °F 33.8 °F 87% 29.52 in 7.0 mi ESE 20.7 mph 32.2 mph N/A   Overcast
9:15 AM 37.4 °F 28.5 °F 33.8 °F 87% 29.52 in 10.0 mi SE 15.0 mph 31.1 mph N/A   Overcast
9:55 AM 37.4 °F 27.2 °F 33.8 °F 87% 29.49 in 10.0 mi ESE 19.6 mph 32.2 mph N/A   Overcast
10:15 AM 37.4 °F 26.9 °F 33.8 °F 87% 29.47 in 10.0 mi ESE 20.7 mph 34.5 mph N/A   Overcast
10:35 AM 37.4 °F 26.9 °F 33.8 °F 87% 29.46 in 10.0 mi ESE 20.7 mph 28.8 mph N/A   Overcast
10:55 AM 37.4 °F 26.9 °F 33.8 °F 87% 29.45 in 10.0 mi ESE 20.7 mph 34.5 mph N/A   Overcast
11:35 AM 37.4 °F 26.1 °F 33.8 °F 87% 29.44 in 10.0 mi SE 24.2 mph 28.8 mph N/A   Overcast
11:55 AM 37.4 °F 27.8 °F 33.8 °F 87% 29.43 in 10.0 mi ESE 17.3 mph 26.5 mph N/A   Overcast
12:15 PM 37.4 °F 28.2 °F 33.8 °F 87% 29.41 in 10.0 mi ESE 16.1 mph 29.9 mph N/A   Overcast
12:35 PM 37.4 °F 27.5 °F 33.8 °F 87% 29.40 in 10.0 mi SE 18.4 mph - N/A   Overcast
12:55 PM 37.4 °F 28.5 °F 33.8 °F 87% 29.39 in 9.0 mi SE 15.0 mph 23.0 mph N/A   Overcast
1:15 PM 37.4 °F 27.8 °F 35.6 °F 93% 29.39 in 5.0 mi SE 17.3 mph 27.6 mph N/A   Overcast
1:35 PM 37.4 °F 28.9 °F 35.6 °F 93% 29.38 in 5.0 mi South 13.8 mph 19.6 mph N/A   Overcast
1:55 PM 39.2 °F 31.6 °F 35.6 °F 87% 29.38 in 7.0 mi South 12.7 mph - N/A   Overcast
2:15 PM 39.2 °F 32.0 °F 37.4 °F 93% 29.39 in 7.0 mi South 11.5 mph - N/A   Overcast
2:35 PM 39.2 °F 30.5 °F 35.6 °F 87% 29.41 in 5.0 mi SW 16.1 mph 20.7 mph N/A   Overcast
2:55 PM 37.4 °F 28.5 °F 33.8 °F 87% 29.41 in 9.0 mi WSW 15.0 mph 21.9 mph N/A   Overcast
3:15 PM 35.6 °F 28.6 °F 33.8 °F 93% 29.42 in 10.0 mi WSW 9.2 mph - N/A   Overcast
3:35 PM 37.4 °F 32.1 °F 33.8 °F 87% 29.42 in 10.0 mi WSW 6.9 mph - N/A   Overcast
3:55 PM 37.4 °F 32.1 °F 33.8 °F 87% 29.42 in 10.0 mi WSW 6.9 mph - N/A   Overcast
4:15 PM 37.4 °F 32.1 °F 33.8 °F 87% 29.43 in 10.0 mi WSW 6.9 mph - N/A   Overcast
4:35 PM 37.4 °F 32.1 °F 32.0 °F 81% 29.43 in 9.0 mi WSW 6.9 mph - N/A   Overcast
4:55 PM 35.6 °F 30.7 °F 32.0 °F 87% 29.43 in 10.0 mi SW 5.8 mph - N/A   Mostly Cloudy
5:15 PM 35.6 °F 32.8 °F 32.0 °F 87% 29.43 in 10.0 mi SSW 3.5 mph - N/A   Mostly Cloudy
5:35 PM 35.6 °F 29.2 °F 30.2 °F 81% 29.44 in 10.0 mi South 8.1 mph - N/A   Overcast
5:55 PM 35.6 °F 30.7 °F 30.2 °F 81% 29.44 in 10.0 mi SSW 5.8 mph - N/A   Overcast
6:15 PM 35.6 °F 31.7 °F 30.2 °F 81% 29.45 in 10.0 mi SW 4.6 mph - N/A   Overcast
6:35 PM 35.6 °F 29.9 °F 30.2 °F 81% 29.45 in 7.0 mi West 6.9 mph - N/A   Overcast
6:55 PM 33.8 °F 27.0 °F 30.2 °F 87% 29.45 in 10.0 mi WSW 8.1 mph - N/A   Overcast
7:15 PM 33.8 °F 28.6 °F 30.2 °F 87% 29.46 in 10.0 mi WSW 5.8 mph - N/A   Overcast
7:35 PM 33.8 °F 27.7 °F 28.4 °F 81% 29.46 in 10.0 mi SW 6.9 mph - N/A   Overcast
8:15 PM 33.8 °F 28.6 °F 30.2 °F 87% 29.46 in 5.0 mi SW 5.8 mph - N/A   Overcast
8:35 PM 33.8 °F 29.6 °F 30.2 °F 87% 29.47 in 5.0 mi SSW 4.6 mph - N/A   Mostly Cloudy
8:55 PM 33.8 °F 30.8 °F 30.2 °F 87% 29.47 in 5.0 mi South 3.5 mph - N/A   Overcast
9:15 PM 33.8 °F - 30.2 °F 87% 29.48 in 4.0 mi Calm Calm - N/A   Overcast
9:35 PM 32.0 °F 28.7 °F 30.2 °F 93% 29.48 in 4.0 mi SW 3.5 mph - N/A   Overcast
9:55 PM 32.0 °F - 30.2 °F 93% 29.49 in 5.0 mi Calm Calm - N/A   Overcast
10:15 PM 32.0 °F 26.4 °F 28.4 °F 87% 29.49 in 7.0 mi SSW 5.8 mph - N/A   Overcast
10:35 PM 32.0 °F 26.4 °F 30.2 °F 93% 29.49 in 8.0 mi WSW 5.8 mph - N/A   Overcast
10:55 PM 33.8 °F 28.6 °F 28.4 °F 81% 29.50 in 8.0 mi WSW 5.8 mph - N/A   Overcast
11:15 PM 33.8 °F 28.6 °F 28.4 °F 81% 29.51 in 8.0 mi West 5.8 mph - N/A   Overcast
11:35 PM 33.8 °F 26.4 °F 30.2 °F 87% 29.52 in 8.0 mi West 9.2 mph - N/A   Overcast
11:55 PM 33.8 °F 27.7 °F 28.4 °F 81% 29.53 in 8.0 mi West 6.9 mph - N/A   Overcast